EHI
0 0 0 0 0 0 0 0 0 0 0 0 0 0 0 0 0 0 0 0 0 0 0 0 0 0 0 0 0 0 0 0 0 0 0 0 0 0 0 0 0 0 0
0 0 0 0 0 0 0 0 0 0 0 0 0 0 0 0 0 0 0 0 0 0 0 0 0 0 0 0 0 0 0 0 0 0 0 0 0 0 0 0 0 0 0
0 0 0 0 0 0 0 0 0 0 0 0 0 0 0 0 0 0 0 0 0 0 0 0 0 0 0 0 0 0 0 0 0 0 0 0 0 0 0 0 0 0 0
0 0 0 0 0 0 0 0 0 0 0 0 0 0 0 0 0 0 0 0 0 0 0 0 0 0 0 0 0 0 0 0 0 0 0 0 0 0 0 0 0 0 0
0 0 0 0 0 0 0 0 0 0 0 0 0 0 0 0 0 0 0 0 0 0 0 0 0 0 0 0 0 0 0 0 0 0 0 0 0 0 0 0 0 0 0
0 0 0 0 0 0 0 0 0 0 0 0 0 0 0 0 0 0 0 0 0 0 0 0 0 0 0 0 0 0 0 0 0 0 0 0 0 0 0 0 0 0 0
0 0 0 0 0 0 0 0 0 0 0 0 0 0 0 0 0 0 0 0 0 0 0 0 0 0 0 0 0 0 0 0 0 0 0 0 0 0 0 0 0 0 0
0 0 0 0 0 0 0 0 0 0 0 0 0 0 0 0 0 0 0 0 0 0 0 0 0 0 0 0 0 0 0 0 0 0 0 0 0 0 0 0 0 0 0
0 0 0 0 0 0 0 0 0 0 0 0 0 0 0 0 0 0 0 0 0 0 0 0 0 0 0 0 0 0 0 0 0 0 0 0 0 0 0 0 0 0 0
0 0 0 0 0 0 0 0 0 0 0 0 0 0 0 0 0 0 0 0 0 0 0 0 0 0 0 0 0 0 0 0 0 0 0 0 0 0 0 0 0 0 0
0 0 0 0 0 0 0 0 0 0 0 0 0 0 0 0 0 0 0 0 0 0 0 0 0 0 0 0 0 0 0 0 0 0 0 0 0 0 0 0 0 0 0
0 0 0 0 0 0 0 0 0 0 0 0 0 0 0 0 0 0 0 0 0 0 0 0 0 0 0 0 0 0 0 0 0 0 0 0 0 0 0 0 0 0 0
0 0 0 0 0 0 0 0 0 0 0 0 0 0 0 0 0 0 0 0 0 0 0 0 0 0 0 0 0 0 0 0 0 0 0 0 0 0 0 0 0 0 0
0 0 0 0 0 0 0 0 0 0 0 0 0 0 0 0 0 0 0 0 0 0 0 0 0 0 0 0 0 0 0 0 0 0 0 0 0 0 0 0 0 0 0
0 0 0 0 0 0 0 0 0 0 0 0 0 0 0 0 0 0 0 0 0 0 0 0 0 0 0 0 0 0 0 0 0 0 0 0 0 0 0 0 0 0 0
0 0 0 0 0 0 0 0 0 0 0 0 0 0 0 0 0 0 0 0 0 0 0 0 0 0 0 0 0 0 0 0 0 0 0 0 0 0 0 0 0 0 0
0 0 0 0 0 0 0 0 0 0 0 0 0 0 0 0 0 0 0 0 0 0 0 0 0 0 0 0 0 0 0 0 0 0 0 0 0 0 0 0 0 0 0
0 0 0 0 0 0 0 0 0 0 0 0 0 0 0 0 0 0 0 0 0 0 0 0 0 0 0 0 0 0 0 0 0 0 0 0 0 0 0 0 0 0 0
0 0 0 0 0 0 0 0 0 0 0 0 0 0 0 0 0 0 0 0 0 0 0 0 0 0 0 0 0 0 0 0 0 0 0 0 0 0 0 0 0 0 0
0 0 0 0 0 0 0 0 0 0 0 0 0 0 0 0 0 0 0 0 0 0 0 0 0 0 0 0 0 0 0 0 0 0 0 0 0 0 0 0 0 0 0
0 0 0 0 0 0 0 0 0 0 0 0 0 0 0 0 0 0 0 0 0 0 0 0 0 0 0 0 0 0 0 0 0 0 0 0 0 0 0 0 0 0 0
0 0 0 0 0 0 0 0 0 0 0 0 0 0 0 0 0 0 0 0 0 0 0 0 0 0 0 0 0 0 0 0 0 0 0 0 0 0 0 0 0 0 0
0 0 0 0 0 0 0 0 0 0 0 0 0 0 0 0 0 0 0 0 0 0 0 0 0 0 0 0 0 0 0 0 0 0 0 0 0 0 0 0 0 0 0
0 0 0 0 0 0 0 0 0 0 0 0 0 0 0 0 0 0 0 0 0 0 0 0 0 0 0 0 0 0 0 0 0 0 0 0 0 0 0 0 0 0 0
0 0 0 0 0 0 0 0 0 0 0 0 0 0 0 0 0 0 0 0 0 0 0 0 0 0 0 0 0 0 0 0 0 0 0 0 0 0 0 0 0 0 0
0 0 0 0 0 0 0 0 0 0 0 0 0 0 0 0 0 0 0 0 0 0 0 0 0 0 0 0 0 0 0 0 0 0 0 0 0 0 0 0 0 0 0
Wind_Speed
1 2 2 2 2 2 2 2 2 2 2 2 2 2 2 2 2 2 2 5 6 5 5 6 6 7 7 7 8 8 8 8 8 8 9 9 9 9 10 10 10 10 10
1 1 2 2 2 2 2 2 2 2 2 1 2 2 2 2 2 2 2 3 5 4 4 5 6 7 7 7 8 9 8 9 8 8 9 9 9 10 10 11 10 10 10
1 1 1 2 2 2 2 2 2 1 2 1 2 2 1 1 1 1 1 1 1 2 3 4 5 7 8 8 8 9 9 9 9 9 9 9 9 10 10 11 10 10 10
1 1 1 2 2 2 2 2 1 1 2 2 2 2 1 1 1 1 1 1 1 1 2 3 4 5 6 7 8 9 9 9 9 9 9 9 9 10 10 11 10 10 10
2 1 1 2 2 2 2 2 1 1 1 2 2 1 1 1 1 1 0 1 1 1 1 2 3 3 5 6 7 8 9 10 9 10 10 10 9 10 10 10 10 10 10
2 1 1 2 3 2 2 2 2 1 1 2 1 1 1 1 1 1 1 0 0 1 1 0 0 1 3 4 5 6 8 9 10 10 11 11 10 10 10 10 10 10 10
2 2 1 2 2 2 2 3 2 2 2 1 1 2 2 2 2 1 1 0 0 0 0 1 1 0 1 3 4 4 6 8 9 10 11 11 11 11 11 11 11 11 11
2 1 1 2 2 2 3 3 2 1 2 2 1 1 2 3 3 2 1 1 1 0 0 0 1 1 1 1 2 3 4 6 8 9 10 11 11 11 11 11 11 11 11
2 1 1 1 2 1 2 2 2 1 1 2 1 1 1 0 1 2 2 2 2 1 1 0 1 1 1 1 1 2 3 4 6 8 9 10 11 11 11 11 11 10 10
2 1 1 1 1 1 2 2 1 1 1 1 1 1 1 1 1 1 2 2 2 2 1 1 1 1 1 1 1 2 2 3 4 6 8 9 10 11 11 11 11 11 11
2 2 1 1 2 2 2 2 2 1 0 0 0 1 1 1 1 1 1 2 2 2 2 1 1 1 1 1 1 1 2 3 3 4 5 7 8 9 10 10 11 11 12
2 2 1 1 1 2 2 2 1 1 1 0 0 1 1 1 0 1 1 0 1 2 2 2 2 1 1 1 1 2 2 2 2 2 3 4 6 8 9 10 11 11 11
2 2 1 1 1 2 2 1 1 1 1 1 1 0 0 0 1 1 2 1 1 1 2 2 2 2 1 1 1 2 2 2 1 1 1 2 4 5 7 9 10 10 11
3 2 2 2 2 2 1 1 1 1 1 1 1 1 0 1 0 1 2 2 1 2 2 2 1 2 2 1 1 2 1 1 1 1 1 2 3 4 5 6 7 8 10
3 3 2 2 2 1 1 0 0 1 1 1 1 1 0 1 1 0 1 2 3 1 1 2 1 2 2 1 1 1 1 1 1 0 1 2 3 4 4 5 5 6 6
3 2 2 2 2 1 1 0 0 1 0 1 0 1 1 1 1 1 0 0 1 2 1 1 1 2 2 2 2 1 1 1 1 1 1 1 2 3 4 5 4 5 5
3 3 3 2 2 2 1 1 1 1 0 1 1 0 1 0 0 1 1 1 1 1 2 1 1 1 1 2 2 2 1 0 0 0 0 1 1 2 3 3 4 4 5
4 4 3 3 3 2 2 2 2 1 1 1 1 1 1 0 0 0 0 0 0 1 2 1 1 2 2 1 1 1 1 1 1 1 1 1 1 2 3 4 4 4 4
4 4 3 4 4 3 3 3 3 2 2 2 2 2 2 1 1 1 1 0 0 1 1 1 0 1 1 1 1 2 2 2 2 2 1 1 1 2 3 4 4 5 5
5 5 5 5 4 4 3 3 3 3 3 3 2 2 2 3 3 2 1 1 1 1 1 1 0 1 1 1 1 1 2 2 2 2 2 2 2 2 2 2 3 4 4
6 5 5 4 4 4 4 5 4 4 3 3 3 3 3 4 5 4 3 2 2 2 1 1 0 0 1 1 0 0 0 1 2 1 2 2 2 1 2 2 2 2 3
6 5 6 5 5 5 7 9 7 4 4 4 4 3 4 4 5 6 6 5 5 4 3 2 1 2 2 1 1 1 1 1 1 1 1 2 1 1 2 1 2 3 3
7 7 7 6 6 7 9 9 10 6 5 5 5 4 3 3 4 2 3 4 4 5 6 4 3 3 3 3 2 1 1 1 1 2 1 2 2 2 2 2 3 2 1
7 8 8 8 7 8 11 10 10 6 5 5 5 5 5 4 4 4 3 2 2 2 4 3 4 4 3 3 3 2 2 1 1 1 0 1 2 2 2 2 4 3 3
8 8 7 8 8 9 11 11 9 5 4 5 5 5 5 5 8 7 5 4 2 2 2 4 5 3 2 3 4 2 2 1 0 1 0 0 1 2 2 2 2 4 4
9 8 8 8 9 9 10 12 11 5 5 4 4 4 8 8 9 8 6 5 5 4 2 2 1 1 1 1 2 3 3 2 1 1 1 0 1 1 2 2 2 2 3
Wind_Direction
12 3 352 348 348 348 341 332 332 330 328 315 296 270 259 252 245 245 274 283 273 263 248 229 213 216 212 204 194 191 184 177 172 165 160 156 151 147 144 140 136 134 133
46 25 4 354 346 338 329 319 320 317 305 297 298 280 262 259 247 247 261 283 275 262 257 239 221 220 215 210 202 195 190 181 176 172 167 163 159 155 152 148 145 141 139
52 44 15 356 337 331 334 335 336 335 317 312 305 295 269 264 249 244 258 270 281 264 258 251 234 226 219 214 204 200 192 184 178 176 173 168 166 163 158 156 154 151 148
40 41 19 347 334 340 345 336 339 330 326 321 307 302 298 288 272 239 235 271 273 275 269 255 246 234 224 218 210 203 194 187 181 179 176 173 170 168 164 164 163 161 157
26 35 7 341 344 352 351 336 349 318 311 315 296 295 307 292 292 289 315 257 237 220 246 267 253 237 226 221 216 208 197 192 187 185 181 176 174 173 171 171 171 169 167
9 22 7 353 356 358 352 348 329 333 305 304 325 1 338 326 337 1 336 275 220 207 158 201 236 246 223 220 212 207 201 196 192 191 188 183 181 180 179 179 178 178 177
1 12 3 355 359 357 341 339 336 346 348 341 23 8 357 7 26 23 350 329 15 14 117 138 135 162 213 207 200 202 205 203 198 196 194 190 187 187 187 187 187 186 186
345 352 5 349 352 354 354 356 6 359 350 10 57 62 10 1 2 15 12 15 20 57 87 103 119 149 152 144 176 190 199 203 204 202 201 197 191 191 192 192 194 194 193
333 344 346 343 349 2 340 340 356 26 350 351 28 112 125 209 323 345 7 20 20 39 22 23 114 122 151 154 157 197 203 204 205 206 206 201 195 195 195 197 199 200 199
329 334 337 348 346 346 338 329 9 12 31 344 347 22 116 173 134 359 346 357 19 28 13 15 59 102 126 127 154 172 191 196 199 209 207 203 198 200 200 201 202 204 205
323 325 329 347 339 337 338 343 356 14 28 65 340 346 26 42 79 120 360 343 359 357 5 12 31 55 82 101 120 150 181 187 186 201 208 207 204 205 205 205 207 208 210
306 309 314 337 322 322 328 330 337 6 16 45 52 52 84 78 88 112 136 350 341 334 351 17 30 26 46 63 79 92 145 174 182 187 199 203 201 209 214 211 212 214 216
271 279 292 296 299 301 310 326 349 359 9 36 45 32 42 148 178 144 134 136 36 342 352 6 7 6 36 47 34 57 81 105 145 170 195 208 202 210 218 218 219 222 224
243 256 261 268 280 297 311 339 350 332 14 27 27 31 23 3 28 156 155 145 90 16 15 347 339 358 7 24 40 63 43 47 68 193 221 225 214 208 210 215 223 229 230
241 243 244 260 274 286 294 315 344 339 26 27 12 25 29 350 14 26 144 156 146 126 343 325 340 338 347 15 23 66 48 13 9 299 256 236 232 219 212 214 221 227 232
235 238 243 249 258 262 269 264 288 301 15 336 335 37 32 357 14 26 72 122 147 151 169 277 304 314 333 18 35 44 20 13 353 328 290 269 256 239 225 220 224 227 227
222 227 230 233 235 235 234 240 258 258 238 311 327 18 336 9 30 19 53 81 109 138 152 283 315 324 2 20 11 12 24 62 315 292 249 264 259 253 234 225 225 228 231
222 220 218 220 228 225 218 226 249 236 219 245 267 261 280 277 40 10 64 102 141 154 151 169 348 358 5 352 10 17 357 16 355 322 301 271 270 259 244 236 231 232 234
220 218 208 214 223 223 222 227 226 226 224 232 233 230 245 199 227 236 216 197 183 108 123 146 27 359 355 352 24 18 8 359 347 0 9 357 313 277 251 240 238 237 236
212 214 211 216 220 220 220 223 218 218 225 234 229 224 223 212 217 212 209 207 160 110 102 113 109 2 347 342 46 26 4 4 347 353 7 358 350 325 290 260 246 243 242
213 211 211 218 222 219 219 213 213 213 218 232 240 236 234 230 223 209 195 188 163 145 133 138 183 357 324 3 19 342 357 338 335 352 344 338 336 325 314 300 281 267 253
214 208 211 214 221 227 229 218 204 205 210 218 235 246 248 245 243 232 218 196 182 174 176 173 191 199 228 222 199 172 155 41 325 335 358 319 336 314 312 296 289 290 275
208 210 214 212 222 234 237 228 212 196 204 215 224 232 241 229 221 213 222 207 206 208 192 175 187 211 210 206 179 178 184 184 235 292 7 315 331 314 311 331 338 342 355
208 212 215 213 219 233 234 230 217 198 206 218 220 219 223 235 221 199 188 188 211 229 213 195 197 213 215 200 185 177 174 179 284 304 168 279 318 308 319 335 359 28 39
213 212 211 208 213 230 229 224 209 191 210 225 226 219 216 224 232 205 181 189 208 243 223 196 196 199 198 191 170 140 140 132 321 322 27 217 301 309 314 328 359 24 31
219 214 217 212 211 220 223 218 203 188 206 222 225 225 222 220 224 200 185 185 198 214 177 150 128 70 65 105 164 167 168 165 179 258 296 204 294 342 330 323 347 3 13